Forside
METAR-TAF:

METAR-TAF

Lufthavne :

DeKalb Taylor Municipal Airport

DeKalb, Illinois, USA

Breddekreds: 41-55-55N, længdekreds: 088-42-30W, højde: 279 m

Aktuelle vejr

Denne rapport blev lavet for 34 minutter siden, kl. 11:15 UTC
Vind 7 kt fra sydøst
Temperatur 0°C
Fugtighed 100%
Tryk 1024 hPa
Sigt: 2.4 km
Overskyet i en højde af 300 ft
let sne

METAR: KDKB 241115Z AUTO 14007KT 1 1/2SM -SN OVC003 00/00 A3023 RMK AO2 P0001 T00020002

Tid: 05:49 (11:49 UTC)


TAF: fraværende

Vejrobservationer og prognoser fra mere end 4000 lufthavne (METAR og TAF).

De gule og røde prikker repræsenterer de meteorologiske stationer.

Flyt musen over at se navnet på stationen.

Så klik over at se vejr observationer og prognoser.

At skifte det kort: Klik på de grønne knapper med et sort kors for at zoome ind; på den grønne knap med en bindestreg for at zoome ud; eller på de grønne pile for tilstødende kort.


METAR-TAF: